Powrót do katalogu

SL-3 R/B

AktywnyPO
NORAD 13068·ROCKET BODY·🇷🇺 Russia

Wystrzelony Feb 19, 1982 z Plesetsk Cosmodrome

Loading…

Następne Przeloty (najbliższe 24 godziny)

TLE

ŚwieżeSource: Space-Track

Epoka: Sep 14, 2026, 13:43 UTC

1 13068U 82013B   26257.57198188  .00002350  00000-0  97455-4 0  9995
2 13068  81.1724 299.1038 0020479 260.6708  99.2209 15.23293185433095

Śledź SL-3 R/B w czasie rzeczywistym z AllMySat

Download on the App Store